Find Starlink 5177

NORAD ID: 54090 Int'l Des: 2022-136 Owner: SPXS Country: US Constellation: starlink operational
LEOCIRCULAR

Live Position

Loading 3D Globe...

About Starlink 5177

Description loading...

Upcoming Passes

Passes for default location (London). Set your location on the main map for personalized predictions.

Altitude History

Loading altitude history...

Two-Line Element Set

1 54090U 22136AR 26105.90525316 -.00000353 00000-0 -40687-5 0 9990
2 54090 53.2171 166.9623 0001171 90.3422 269.7704 15.08839745192605
Epoch: Apr 15, 2026 • Age: 11 hours

Current Status

Altitude 549.6 km
Velocity 7.59 km/s
Sub-Earth Point -30.38°S, 164.33°E
Launch Date Oct 20, 2022
Age 3.4 years
Type internet

Technical Details

Classification Payload
Mass 305.00 kg
Dry Mass 290.00 kg
Total Mass 305.00 kg
Length 0.20 m
Diameter 2.80 m
Span 9.00 m
Shape Box + pan
Manufacturer SPXS
Bus Type Starlink
Phase Status In Orbit
Owner/State SPXS/US

Most Searched